Satellite: NO-44
Catalog number: 26931
Epoch time:      10259.64210238
Element set:     559
Inclination:      067.0532 deg
RA of node:       328.3450 deg
Eccentricity:    0.0005354
Arg of perigee:   270.9869 deg
Mean anomaly:     089.0620 deg
Mean motion:   14.29610626 rev/day
Decay rate:        8.0e-07 rev/day^2
Epoch rev:           46782
Checksum:              305

Satellite: SO-50
Catalog number: 27607
Epoch time:      10259.00511672
Element set:     270
Inclination:      064.5573 deg
RA of node:       080.6605 deg
Eccentricity:    0.0041001
Arg of perigee:   037.4308 deg
Mean anomaly:     322.9652 deg
Mean motion:   14.71575262 rev/day
Decay rate:        3.5e-07 rev/day^2
Epoch rev:           41574
Checksum:              270

Satellite: CO-55
Catalog number: 27844
Epoch time:      10258.59315469
Element set:     936
Inclination:      098.7112 deg
RA of node:       266.2776 deg
Eccentricity:    0.0009013
Arg of perigee:   273.4422 deg
Mean anomaly:     086.5714 deg
Mean motion:   14.20729403 rev/day
Decay rate:        6.1e-07 rev/day^2
Epoch rev:           37392
Checksum:              317

Satellite: CO-57
Catalog number: 27848
Epoch time:      10258.98816857
Element set:     883
Inclination:      098.7156 deg
RA of node:       265.7777 deg
Eccentricity:    0.0008983
Arg of perigee:   277.2990 deg
Mean anomaly:     082.7179 deg
Mean motion:   14.20520261 rev/day
Decay rate:        3.6e-07 rev/day^2
Epoch rev:           37393
Checksum:              371

Satellite: AO-51
Catalog number: 28375
Epoch time:      10259.47770074
Element set:     775
Inclination:      098.0697 deg
RA of node:       247.8129 deg
Eccentricity:    0.0083177
Arg of perigee:   179.7507 deg
Mean anomaly:     180.3743 deg
Mean motion:   14.40698597 rev/day
Decay rate:        2.2e-07 rev/day^2
Epoch rev:           32665
Checksum:              353

Satellite: GENESAT1
Catalog number: 29655
Epoch time:      10216.61700559
Element set:     226
Inclination:      040.0059 deg
RA of node:       067.3006 deg
Eccentricity:    0.0005079
Arg of perigee:   297.8744 deg
Mean anomaly:     064.7087 deg
Mean motion:   16.44862838 rev/day
Decay rate:  1.0637092e-01 rev/day^2
Epoch rev:           20777
Checksum:              320

Satellite: CP3
Catalog number: 31129
Epoch time:      10258.67853945
Element set:     676
Inclination:      097.9299 deg
RA of node:       293.3723 deg
Eccentricity:    0.0101044
Arg of perigee:   313.6233 deg
Mean anomaly:     045.6609 deg
Mean motion:   14.52300893 rev/day
Decay rate:      -1.61e-06 rev/day^2
Epoch rev:           18099
Checksum:              316

Satellite: CO-65
Catalog number: 32785
Epoch time:      10259.19739623
Element set:     785
Inclination:      097.8865 deg
RA of node:       322.8240 deg
Eccentricity:    0.0015261
Arg of perigee:   353.2735 deg
Mean anomaly:     006.8346 deg
Mean motion:   14.81713160 rev/day
Decay rate:        1.2e-07 rev/day^2
Epoch rev:           12896
Checksum:              319

Satellite: KKS-1
Catalog number: 33493
Epoch time:      10259.86643576
Element set:     858
Inclination:      098.0957 deg
RA of node:       020.1938 deg
Eccentricity:    0.0019391
Arg of perigee:   201.5684 deg
Mean anomaly:     158.4721 deg
Mean motion:   14.81098310 rev/day
Decay rate:       5.55e-06 rev/day^2
Epoch rev:            8905
Checksum:              326

Satellite: SOHLA-1
Catalog number: 33496
Epoch time:      10259.40277110
Element set:     205
Inclination:      098.0635 deg
RA of node:       007.3247 deg
Eccentricity:    0.0005578
Arg of perigee:   276.8333 deg
Mean anomaly:     083.2253 deg
Mean motion:   14.69514923 rev/day
Decay rate:        2.9e-07 rev/day^2
Epoch rev:            8827
Checksum:              297

Satellite: TISAT-1
Catalog number: 36799
Epoch time:      10259.72239900
Element set:     131
Inclination:      098.1394 deg
RA of node:       319.8165 deg
Eccentricity:    0.0016728
Arg of perigee:   080.2781 deg
Mean anomaly:     280.0319 deg
Mean motion:   14.80165796 rev/day
Decay rate:       3.02e-06 rev/day^2
Epoch rev:             985
Checksum:              313

Satellite: STUDSAT
Catalog number: 36801
Epoch time:      10258.73310416
Element set:      64
Inclination:      098.1409 deg
RA of node:       318.7510 deg
Eccentricity:    0.0015231
Arg of perigee:   071.4970 deg
Mean anomaly:     288.7894 deg
Mean motion:   14.79641816 rev/day
Decay rate:       8.72e-06 rev/day^2
Epoch rev:             970
Checksum:              300

/EX
SB KEPS @ AMSAT  $ORB10259.W
Orbital Elements  10259.WEATHER

HR AMSAT ORBITAL ELEMENTS FOR WEATHER SATELLITES
FROM WA5QGD FORT WORTH,TX September 16, 2010
Send Subscribe/unsubscribe to KEPS at
http://www.amsat.org/mailman/listinfo/keps
BID: ORB10259.W
TO ALL RADIO AMATEURS BT

Satellite: NOAA-10
Catalog number: 16969
Epoch time:      10258.71721888
Element set:    0205
Inclination:      098.6511 deg
RA of node:       286.8115 deg
Eccentricity:    0.0011712
Arg of perigee:   310.4976 deg
Mean anomaly:     049.5154 deg
Mean motion:   14.27425645 rev/day
Decay rate:      -2.09e-06 rev/day^2
Epoch rev:           24849
Checksum:              317

